Flag for Argentina Weather past 2 weeks in Ushuaia, Tierra del Fuego, Argentina

Now
36 °F

Clear.


Feels Like: 32 °F
Forecast: 26 / 36 °F
Wind: 5 mph from North

Location: Ushuaia Aerodrome

Current Time: Jul 31, 2015 at 1:18:45 AM

Latest Report: Jul 30, 2015 at 10:00 PM


Visibility: 10 mi

Pressure: 29.71 "Hg

Humidity: 75%

Dew point: 28 °F

Location of UshuaiaLocation

Historic Weather in Ushuaia — Graph

°F

Ushuaia temperature yesterday

Maximum temperature yesterday: 39 °F (at 12:00 AM)
Minimum temperature yesterday: 36 °F (at 5:00 AM)
Average temperature yesterday: 37 °F

Past Weeks' High & Low Weather Summary

 TemperatureHumidityPressure
High43 °F (Jul 16, 1:00 PM)100% (Jul 19, 11:00 AM)29.95 "Hg (Jul 19, 11:00 AM)
Low25 °F (Jul 24, 1:00 AM)39% (Jul 29, 2:00 PM)28.56 "Hg (Jul 18, 7:00 AM)
Average36 °F78%29.31 "Hg
* Reported Jul 15 10:00 PM — Jul 30 10:00 PM, Ushuaia, Weather by CustomWeather, © 2015

Note: Actual official high and low records may vary slightly from our data, if they occured in-between our weather recording intervals... More about our weather records

Advertising

Ushuaia weather history for previous 24 hours

 ConditionsComfort  
Time TempWeatherWind HumidityBarometerVisibility
10:00 PM
Thu, Jul 30
36 °FClear.5 mph75%29.71 "Hg10 mi
9:00 PM36 °FPassing clouds.6 mph75%29.68 "HgN/A
8:00 PM36 °FPassing clouds.8 mph75%29.68 "HgN/A
7:00 PM36 °FPassing clouds.5 mph70%29.65 "HgN/A
6:00 PM37 °FPassing clouds.6 mph87%29.65 "HgN/A
5:00 PM39 °FClear.3 mph75%29.65 "Hg10 mi
4:00 PM39 °FSunny.No wind75%29.62 "Hg10 mi
3:00 PM39 °FSunny.No wind75%29.62 "Hg10 mi
2:00 PM39 °FSunny.No wind75%29.62 "Hg10 mi
1:00 PM39 °FSunny.No wind75%29.62 "Hg10 mi
12:00 PM37 °FSunny.No wind75%29.59 "Hg10 mi
11:00 AM36 °FSunny.No wind81%29.59 "Hg10 mi
10:00 AM36 °FSunny.No wind75%29.59 "Hg10 mi
9:00 AM36 °FPartly sunny.No wind81%29.56 "HgN/A
8:00 AM36 °FPassing clouds.8 mph87%29.56 "HgN/A
7:00 AM36 °FPassing clouds.2 mph81%29.56 "HgN/A
6:00 AM36 °FClear.8 mph87%29.56 "Hg10 mi
5:00 AM36 °FClear.9 mph87%29.56 "Hg10 mi
4:00 AM37 °FClear.14 mph81%29.56 "Hg10 mi
3:00 AM37 °FClear.13 mph81%29.56 "Hg10 mi
2:00 AM39 °FPassing clouds.9 mph70%29.56 "HgN/A
1:00 AM39 °FPassing clouds.3 mph70%29.56 "HgN/A
Weather by CustomWeather, © 2015

See weather overviewHow to use our weather pages